GSAT-14

Last updated on Sat Sep 05 2026 00:03:03 GMT+0000 (Coordinated Universal Time)

1 39498U 14001A 26247.61058006 -.00000083 00000+0 00000+0 0 9996 2 39498 0.0548 269.8524 0005114 306.6216 61.0675 1.00268286 46179
UTC large
Height (km)
Speed (km/s)
/
Latitude / Longitude
Inclination (degrees)
Orbital Period (minutes)
Azimuth
Elevation
Range (km)
Doppler Factor

Next 0 passes for location: London (51.5072 / 0.1276)

No passes found over London.
GSAT-14